This is the latest recevied weather packets stored in our database for station/object KU9TRY. If no packets are shown the sender has not sent any weather packets the latest 10 day(s).
| Time | Temp. | Humidity | Pressure | Rain* | Wind** | Luminosity | Snow |
|---|---|---|---|---|---|---|---|
| 1787874401 | 27.22° C | 64% | 1013.9 hPa | 0 mm | - | 15 W/m² | - |
| 1787874096 | 27.22° C | 64% | 1013.8 hPa | 0 mm | - | 17 W/m² | - |
| 1787873796 | 27.22° C | 64% | 1013.8 hPa | 0 mm | - | 20 W/m² | - |
| 1787873491 | 27.22° C | 64% | 1013.8 hPa | 0 mm | - | 22 W/m² | - |
| 1787873186 | 27.22° C | 64% | 1014 hPa | 0 mm | - | 24 W/m² | - |
| 1787872885 | 27.78° C | 64% | 1013.9 hPa | 0 mm | - | 26 W/m² | - |
| 1787872581 | 27.78° C | 63% | 1013.7 hPa | 0 mm | - | 27 W/m² | - |
| 1787872276 | 27.78° C | 64% | 1013.9 hPa | 0 mm | - | 28 W/m² | - |
| 1787871975 | 27.78° C | 64% | 1013.9 hPa | 0 mm | - | 29 W/m² | - |
| 1787871671 | 27.78° C | 64% | 1014.1 hPa | 0 mm | - | 31 W/m² | - |
| 1787871366 | 27.78° C | 64% | 1013.9 hPa | 0 mm | - | 36 W/m² | - |
| 1787871061 | 27.78° C | 65% | 1013.8 hPa | 0 mm | - | 36 W/m² | - |
| 1787870761 | 27.78° C | 64% | 1014 hPa | 0 mm | - | 36 W/m² | - |
| 1787870456 | 27.78° C | 65% | 1014 hPa | 0 mm | - | 35 W/m² | - |
| 1787870151 | 27.78° C | 65% | 1014 hPa | 0 mm | - | 34 W/m² | - |
| 1787869850 | 27.78° C | 64% | 1014 hPa | 0 mm | - | 36 W/m² | - |
| 1787869549 | 27.78° C | 65% | 1013.9 hPa | 0 mm | - | 36 W/m² | - |
| 1787869244 | 27.78° C | 64% | 1013.8 hPa | 0 mm | - | 36 W/m² | - |
| 1787868943 | 27.78° C | 64% | 1014.1 hPa | 0 mm | - | 37 W/m² | - |
| 1787868643 | 28.33° C | 63% | 1014 hPa | 0 mm | - | 40 W/m² | - |
| 1787868341 | 28.33° C | 62% | 1014.1 hPa | 0 mm | - | 40 W/m² | - |
| 1787868037 | 28.33° C | 63% | 1014.2 hPa | 0 mm | - | 39 W/m² | - |
| 1787867732 | 28.33° C | 63% | 1014.1 hPa | 0 mm | - | 38 W/m² | - |
| 1787867427 | 28.89° C | 62% | 1014 hPa | 0 mm | - | 40 W/m² | - |
| 1787867122 | 28.89° C | 63% | 1014.2 hPa | 0 mm | - | 41 W/m² | - |
* Rain latest hour (hover to see other rain measurements)
** Current wind speed in m/s (hover to see current wind gust speed)